Time,TemperatureF,DewpointF,PressureIn,WindDirection,WindDirectionDegrees,WindSpeedMPH,WindSpeedGustMPH,Humidity,HourlyPrecipIn,Conditions,Clouds,dailyrainin,SoftwareType,DateUTC
2013-06-21 00:03:00,76.1,67.2,30.00,SSE,155,0.0,1.0,74,0.00,,,0.00,Wunderground v.1.15,2013-06-21 05:03:00,
2013-06-21 00:09:00,76.0,67.1,30.00,SSE,157,0.0,1.0,74,0.00,,,0.00,Wunderground v.1.15,2013-06-21 05:09:00,
2013-06-21 00:14:00,76.0,67.1,30.00,SSE,155,0.0,3.0,74,0.00,,,0.00,Wunderground v.1.15,2013-06-21 05:14:00,
2013-06-21 00:20:00,75.8,66.9,30.01,SSE,155,0.0,1.0,74,0.00,,,0.00,Wunderground v.1.15,2013-06-21 05:20:00,
2013-06-21 00:25:00,75.8,66.9,30.01,SSE,155,3.0,3.0,74,0.00,,,0.00,Wunderground v.1.15,2013-06-21 05:25:00,
2013-06-21 00:30:00,75.8,67.3,30.01,SE,144,2.0,2.0,75,0.00,,,0.00,Wunderground v.1.15,2013-06-21 05:30:00,
2013-06-21 00:36:00,75.8,67.3,30.01,SE,143,0.0,2.0,75,0.00,,,0.00,Wunderground v.1.15,2013-06-21 05:36:00,
2013-06-21 00:42:00,75.6,67.1,30.01,SE,143,0.0,3.0,75,0.00,,,0.00,Wunderground v.1.15,2013-06-21 05:42:00,
2013-06-21 00:47:00,75.4,67.3,30.01,SE,143,0.0,3.0,76,0.00,,,0.00,Wunderground v.1.15,2013-06-21 05:47:00,
2013-06-21 00:53:00,75.4,67.3,30.01,SE,143,3.0,3.0,76,0.00,,,0.00,Wunderground v.1.15,2013-06-21 05:53:00,
2013-06-21 00:58:00,75.4,67.3,30.01,SE,138,2.0,3.0,76,0.00,,,0.00,Wunderground v.1.15,2013-06-21 05:58:00,
2013-06-21 01:03:00,75.4,67.3,30.01,South,184,0.0,1.0,76,0.00,,,0.00,Wunderground v.1.15,2013-06-21 06:03:00,
2013-06-21 01:09:00,75.3,67.2,30.01,SE,139,0.0,1.0,76,0.00,,,0.00,Wunderground v.1.15,2013-06-21 06:09:00,
2013-06-21 01:14:00,75.1,67.4,30.01,SSE,157,0.0,2.0,77,0.00,,,0.00,Wunderground v.1.15,2013-06-21 06:14:00,
2013-06-21 01:19:00,75.1,67.4,30.00,SSE,157,0.0,2.0,77,0.00,,,0.00,Wunderground v.1.15,2013-06-21 06:19:00,
2013-06-21 01:25:00,75.1,67.4,30.00,South,184,1.0,2.0,77,0.00,,,0.00,Wunderground v.1.15,2013-06-21 06:25:00,
2013-06-21 01:30:00,75.1,67.4,30.00,South,184,3.0,3.0,77,0.00,,,0.00,Wunderground v.1.15,2013-06-21 06:30:00,
2013-06-21 01:36:00,74.9,67.2,30.00,SSE,147,0.0,3.0,77,0.00,,,0.00,Wunderground v.1.15,2013-06-21 06:36:00,
2013-06-21 01:42:00,74.9,67.6,30.00,SSE,147,0.0,1.0,78,0.00,,,0.00,Wunderground v.1.15,2013-06-21 06:42:00,
2013-06-21 01:47:00,74.7,67.4,30.00,SSE,147,2.0,3.0,78,0.00,,,0.00,Wunderground v.1.15,2013-06-21 06:47:00,
2013-06-21 01:53:00,74.7,67.4,30.00,SE,144,0.0,1.0,78,0.00,,,0.00,Wunderground v.1.15,2013-06-21 06:53:00,
2013-06-21 01:58:00,74.6,67.7,30.00,SE,143,0.0,2.0,79,0.00,,,0.00,Wunderground v.1.15,2013-06-21 06:58:00,
2013-06-21 02:03:00,74.4,67.5,30.00,SE,143,0.0,1.0,79,0.00,,,0.00,Wunderground v.1.15,2013-06-21 07:03:00,
2013-06-21 02:08:00,74.2,67.3,30.00,SSW,212,1.0,2.0,79,0.00,,,0.00,Wunderground v.1.15,2013-06-21 07:08:00,
2013-06-21 02:13:00,74.2,67.3,30.00,SSW,206,2.0,3.0,79,0.00,,,0.00,Wunderground v.1.15,2013-06-21 07:13:00,
2013-06-21 02:18:00,74.0,67.1,30.00,South,191,0.0,3.0,79,0.00,,,0.00,Wunderground v.1.15,2013-06-21 07:18:00,
2013-06-21 02:23:00,74.0,67.4,30.00,SSE,153,2.0,3.0,80,0.00,,,0.00,Wunderground v.1.15,2013-06-21 07:23:00,
2013-06-21 02:28:00,74.0,67.4,30.00,SSE,153,0.0,3.0,80,0.00,,,0.00,Wunderground v.1.15,2013-06-21 07:28:00,
2013-06-21 02:33:00,74.0,67.4,29.99,South,173,0.0,5.0,80,0.00,,,0.00,Wunderground v.1.15,2013-06-21 07:33:00,
2013-06-21 02:38:00,73.9,67.3,29.99,South,178,0.0,5.0,80,0.00,,,0.00,Wunderground v.1.15,2013-06-21 07:38:00,
2013-06-21 02:43:00,73.9,67.3,29.99,SE,146,0.0,1.0,80,0.00,,,0.00,Wunderground v.1.15,2013-06-21 07:43:00,
2013-06-21 02:48:00,73.9,67.3,29.98,SE,146,1.0,2.0,80,0.00,,,0.00,Wunderground v.1.15,2013-06-21 07:48:00,
2013-06-21 02:53:00,73.7,67.1,29.98,SE,146,2.0,2.0,80,0.00,,,0.00,Wunderground v.1.15,2013-06-21 07:53:00,
2013-06-21 02:58:00,73.7,67.5,29.98,SE,146,3.0,4.0,81,0.00,,,0.00,Wunderground v.1.15,2013-06-21 07:58:00,
2013-06-21 03:03:00,73.7,67.5,29.98,SE,146,0.0,3.0,81,0.00,,,0.00,Wunderground v.1.15,2013-06-21 08:03:00,
2013-06-21 03:08:00,73.5,67.3,29.98,SE,146,0.0,3.0,81,0.00,,,0.00,Wunderground v.1.15,2013-06-21 08:08:00,
2013-06-21 03:13:00,73.3,67.1,29.98,SE,146,0.0,2.0,81,0.00,,,0.00,Wunderground v.1.15,2013-06-21 08:13:00,
2013-06-21 03:18:00,73.2,67.4,29.98,SE,146,3.0,3.0,82,0.00,,,0.00,Wunderground v.1.15,2013-06-21 08:18:00,
2013-06-21 03:23:00,73.2,67.4,29.98,SE,142,1.0,3.0,82,0.00,,,0.00,Wunderground v.1.15,2013-06-21 08:23:00,
2013-06-21 03:28:00,73.2,67.4,29.98,SE,142,0.0,3.0,82,0.00,,,0.00,Wunderground v.1.15,2013-06-21 08:28:00,
2013-06-21 03:33:00,73.2,67.4,29.97,SE,142,0.0,0.0,82,0.00,,,0.00,Wunderground v.1.15,2013-06-21 08:33:00,
2013-06-21 03:38:00,73.2,67.4,29.97,SSW,208,2.0,4.0,82,0.00,,,0.00,Wunderground v.1.15,2013-06-21 08:38:00,
2013-06-21 03:43:00,73.2,67.4,29.97,SSW,200,0.0,3.0,82,0.00,,,0.00,Wunderground v.1.15,2013-06-21 08:43:00,
2013-06-21 03:48:00,73.0,67.2,29.98,SSW,200,0.0,3.0,82,0.00,,,0.00,Wunderground v.1.15,2013-06-21 08:48:00,
2013-06-21 03:53:00,73.0,67.2,29.98,East,91,0.0,2.0,82,0.00,,,0.00,Wunderground v.1.15,2013-06-21 08:53:00,
2013-06-21 03:59:00,72.8,67.3,29.98,SE,135,0.0,3.0,83,0.00,,,0.00,Wunderground v.1.15,2013-06-21 08:59:00,
2013-06-21 04:04:00,72.8,67.3,29.98,SE,140,0.0,4.0,83,0.00,,,0.00,Wunderground v.1.15,2013-06-21 09:04:00,
2013-06-21 04:09:00,72.7,67.2,29.98,SE,140,0.0,4.0,83,0.00,,,0.00,Wunderground v.1.15,2013-06-21 09:09:00,
2013-06-21 04:14:00,72.7,67.2,29.98,SE,142,4.0,4.0,83,0.00,,,0.00,Wunderground v.1.15,2013-06-21 09:14:00,
2013-06-21 04:19:00,72.7,67.2,29.98,SE,142,0.0,4.0,83,0.00,,,0.00,Wunderground v.1.15,2013-06-21 09:19:00,
2013-06-21 04:24:00,72.5,67.0,29.98,SE,142,0.0,1.0,83,0.00,,,0.00,Wunderground v.1.15,2013-06-21 09:24:00,
2013-06-21 04:29:00,72.3,67.2,29.98,SE,142,0.0,2.0,84,0.00,,,0.00,Wunderground v.1.15,2013-06-21 09:29:00,
2013-06-21 04:34:00,72.3,67.2,29.99,SE,142,0.0,0.0,84,0.00,,,0.00,Wunderground v.1.15,2013-06-21 09:34:00,
2013-06-21 04:39:00,72.1,67.3,29.99,SE,142,0.0,2.0,85,0.00,,,0.00,Wunderground v.1.15,2013-06-21 09:39:00,
2013-06-21 04:44:00,72.1,67.3,29.99,SE,142,0.0,2.0,85,0.00,,,0.00,Wunderground v.1.15,2013-06-21 09:44:00,
2013-06-21 04:49:00,72.1,67.3,29.99,SE,142,0.0,2.0,85,0.00,,,0.00,Wunderground v.1.15,2013-06-21 09:49:00,
2013-06-21 04:54:00,72.1,67.3,29.99,SE,142,0.0,1.0,85,0.00,,,0.00,Wunderground v.1.15,2013-06-21 09:54:00,
2013-06-21 04:59:00,72.1,67.3,29.99,SE,142,0.0,1.0,85,0.00,,,0.00,Wunderground v.1.15,2013-06-21 09:59:00,
2013-06-21 05:04:00,72.0,67.2,29.99,SE,142,2.0,4.0,85,0.00,,,0.00,Wunderground v.1.15,2013-06-21 10:04:00,
2013-06-21 05:09:00,72.0,67.6,29.99,SE,142,0.0,4.0,86,0.00,,,0.00,Wunderground v.1.15,2013-06-21 10:09:00,
2013-06-21 05:14:00,72.0,67.6,29.99,SE,142,3.0,4.0,86,0.00,,,0.00,Wunderground v.1.15,2013-06-21 10:14:00,
2013-06-21 05:19:00,72.0,67.6,29.99,SSE,162,0.0,5.0,86,0.00,,,0.00,Wunderground v.1.15,2013-06-21 10:19:00,
2013-06-21 05:24:00,71.8,67.4,29.99,SSE,162,0.0,1.0,86,0.00,,,0.00,Wunderground v.1.15,2013-06-21 10:24:00,
2013-06-21 05:29:00,71.8,67.4,29.99,SSE,162,0.0,1.0,86,0.00,,,0.00,Wunderground v.1.15,2013-06-21 10:29:00,
2013-06-21 05:34:00,71.6,67.2,29.98,SSE,162,0.0,3.0,86,0.00,,,0.00,Wunderground v.1.15,2013-06-21 10:34:00,
2013-06-21 05:39:00,71.6,67.2,29.98,SSE,161,2.0,3.0,86,0.00,,,0.00,Wunderground v.1.15,2013-06-21 10:39:00,
2013-06-21 05:44:00,71.5,67.4,29.98,SSE,161,0.0,1.0,87,0.00,,,0.00,Wunderground v.1.15,2013-06-21 10:44:00,
2013-06-21 05:49:00,71.5,67.4,29.98,SSE,161,0.0,2.0,87,0.00,,,0.00,Wunderground v.1.15,2013-06-21 10:49:00,
2013-06-21 05:54:00,71.5,67.4,29.98,SSE,161,0.0,3.0,87,0.00,,,0.00,Wunderground v.1.15,2013-06-21 10:54:00,
2013-06-21 05:59:00,71.5,67.4,29.98,SSE,161,1.0,3.0,87,0.00,,,0.00,Wunderground v.1.15,2013-06-21 10:59:00,
2013-06-21 06:04:00,71.5,67.4,29.99,SSE,161,0.0,4.0,87,0.00,,,0.00,Wunderground v.1.15,2013-06-21 11:04:00,
2013-06-21 06:09:00,71.3,67.2,29.99,SSE,161,0.0,4.0,87,0.00,,,0.00,Wunderground v.1.15,2013-06-21 11:09:00,
2013-06-21 06:14:00,71.5,67.4,29.99,SSE,161,0.0,2.0,87,0.00,,,0.00,Wunderground v.1.15,2013-06-21 11:14:00,
2013-06-21 06:19:00,71.5,67.4,29.99,South,176,0.0,5.0,87,0.00,,,0.00,Wunderground v.1.15,2013-06-21 11:19:00,
2013-06-21 06:24:00,71.5,67.8,29.99,South,176,0.0,4.0,88,0.00,,,0.00,Wunderground v.1.15,2013-06-21 11:24:00,
2013-06-21 06:29:00,71.5,67.4,29.99,SSE,163,3.0,4.0,87,0.00,,,0.00,Wunderground v.1.15,2013-06-21 11:29:00,
2013-06-21 06:34:00,71.6,67.5,29.99,SE,146,2.0,3.0,87,0.00,,,0.00,Wunderground v.1.15,2013-06-21 11:34:00,
2013-06-21 06:39:00,71.6,67.5,29.99,South,181,1.0,3.0,87,0.00,,,0.00,Wunderground v.1.15,2013-06-21 11:39:00,
2013-06-21 06:44:00,71.8,67.7,29.99,NNE,31,0.0,4.0,87,0.00,,,0.00,Wunderground v.1.15,2013-06-21 11:44:00,
2013-06-21 06:49:00,72.0,67.9,29.99,SE,144,0.0,4.0,87,0.00,,,0.00,Wunderground v.1.15,2013-06-21 11:49:00,
2013-06-21 06:54:00,72.1,68.0,29.99,SE,144,0.0,4.0,87,0.00,,,0.00,Wunderground v.1.15,2013-06-21 11:54:00,
2013-06-21 06:59:00,72.3,67.9,29.99,SE,144,1.0,4.0,86,0.00,,,0.00,Wunderground v.1.15,2013-06-21 11:59:00,
2013-06-21 07:04:00,72.5,68.1,29.99,SE,144,0.0,1.0,86,0.00,,,0.00,Wunderground v.1.15,2013-06-21 12:04:00,
2013-06-21 07:09:00,72.7,68.3,29.99,SE,144,0.0,2.0,86,0.00,,,0.00,Wunderground v.1.15,2013-06-21 12:09:00,
2013-06-21 07:14:00,72.8,68.4,29.99,SE,144,0.0,4.0,86,0.00,,,0.00,Wunderground v.1.15,2013-06-21 12:14:00,
2013-06-21 07:19:00,73.2,68.4,30.00,South,178,0.0,6.0,85,0.00,,,0.00,Wunderground v.1.15,2013-06-21 12:19:00,
2013-06-21 07:24:00,73.3,68.5,30.00,South,178,0.0,5.0,85,0.00,,,0.00,Wunderground v.1.15,2013-06-21 12:24:00,
2013-06-21 07:29:00,73.7,68.9,30.00,South,178,0.0,5.0,85,0.00,,,0.00,Wunderground v.1.15,2013-06-21 12:29:00,
2013-06-21 07:34:00,73.9,68.8,30.00,South,173,1.0,4.0,84,0.00,,,0.00,Wunderground v.1.15,2013-06-21 12:34:00,
2013-06-21 07:39:00,74.2,69.1,30.00,South,173,0.0,4.0,84,0.00,,,0.00,Wunderground v.1.15,2013-06-21 12:39:00,
2013-06-21 07:45:00,74.6,69.1,30.00,South,173,0.0,4.0,83,0.00,,,0.00,Wunderground v.1.15,2013-06-21 12:45:00,
2013-06-21 07:50:00,74.9,69.0,30.01,SSW,196,2.0,2.0,82,0.00,,,0.00,Wunderground v.1.15,2013-06-21 12:50:00,
2013-06-21 07:55:00,75.3,69.4,30.01,South,184,0.0,5.0,82,0.00,,,0.00,Wunderground v.1.15,2013-06-21 12:55:00,
2013-06-21 08:00:00,75.4,69.5,30.01,SSE,147,1.0,5.0,82,0.00,,,0.00,Wunderground v.1.15,2013-06-21 13:00:00,
2013-06-21 08:05:00,75.6,69.4,30.01,SE,130,0.0,5.0,81,0.00,,,0.00,Wunderground v.1.15,2013-06-21 13:05:00,
2013-06-21 08:10:00,75.8,69.6,30.01,SSE,153,3.0,3.0,81,0.00,,,0.00,Wunderground v.1.15,2013-06-21 13:10:00,
2013-06-21 08:16:00,76.1,69.8,30.01,SE,132,3.0,8.0,81,0.00,,,0.00,Wunderground v.1.15,2013-06-21 13:16:00,
2013-06-21 08:21:00,76.3,69.7,30.02,SE,132,0.0,6.0,80,0.00,,,0.00,Wunderground v.1.15,2013-06-21 13:21:00,
2013-06-21 08:26:00,76.7,70.1,30.02,SE,145,1.0,6.0,80,0.00,,,0.00,Wunderground v.1.15,2013-06-21 13:26:00,
2013-06-21 08:31:00,76.8,69.8,30.02,SSW,200,0.0,2.0,79,0.00,,,0.00,Wunderground v.1.15,2013-06-21 13:31:00,
2013-06-21 08:36:00,77.2,70.2,30.02,SE,134,1.0,5.0,79,0.00,,,0.00,Wunderground v.1.15,2013-06-21 13:36:00,
2013-06-21 08:41:00,77.6,70.6,30.02,SSE,157,0.0,4.0,79,0.00,,,0.00,Wunderground v.1.15,2013-06-21 13:41:00,
2013-06-21 08:46:00,77.9,70.5,30.02,South,178,0.0,6.0,78,0.00,,,0.00,Wunderground v.1.15,2013-06-21 13:46:00,
2013-06-21 08:51:00,78.1,70.7,30.01,South,178,5.0,7.0,78,0.00,,,0.00,Wunderground v.1.15,2013-06-21 13:51:00,
2013-06-21 08:57:00,78.5,70.7,30.01,SE,141,0.0,7.0,77,0.00,,,0.00,Wunderground v.1.15,2013-06-21 13:57:00,
2013-06-21 09:02:00,78.6,70.8,30.01,SSW,193,2.0,4.0,77,0.00,,,0.00,Wunderground v.1.15,2013-06-21 14:02:00,
2013-06-21 09:07:00,78.8,70.6,30.01,SE,146,6.0,9.0,76,0.00,,,0.00,Wunderground v.1.15,2013-06-21 14:07:00,
2013-06-21 09:12:00,79.2,71.0,30.01,SW,222,1.0,7.0,76,0.00,,,0.00,Wunderground v.1.15,2013-06-21 14:12:00,
2013-06-21 09:17:00,79.4,70.8,30.02,SSE,153,2.0,7.0,75,0.00,,,0.00,Wunderground v.1.15,2013-06-21 14:17:00,
2013-06-21 09:22:00,79.6,71.0,30.02,South,180,0.0,4.0,75,0.00,,,0.00,Wunderground v.1.15,2013-06-21 14:22:00,
2013-06-21 09:27:00,79.9,71.3,30.02,South,177,2.0,5.0,75,0.00,,,0.00,Wunderground v.1.15,2013-06-21 14:27:00,
2013-06-21 09:32:00,79.9,70.9,30.01,South,186,1.0,7.0,74,0.00,,,0.00,Wunderground v.1.15,2013-06-21 14:32:00,
2013-06-21 09:37:00,80.1,71.1,30.01,SE,145,2.0,13.0,74,0.00,,,0.00,Wunderground v.1.15,2013-06-21 14:37:00,
2013-06-21 09:42:00,80.3,70.9,30.01,SSE,168,0.0,10.0,73,0.00,,,0.00,Wunderground v.1.15,2013-06-21 14:42:00,
2013-06-21 09:47:00,80.7,71.6,30.01,SSW,208,1.0,10.0,74,0.00,,,0.00,Wunderground v.1.15,2013-06-21 14:47:00,
2013-06-21 09:52:00,81.1,71.2,30.01,SSE,159,2.0,9.0,72,0.00,,,0.00,Wunderground v.1.15,2013-06-21 14:52:00,
2013-06-21 09:57:00,81.4,71.5,30.01,SSE,163,0.0,9.0,72,0.00,,,0.00,Wunderground v.1.15,2013-06-21 14:57:00,
2013-06-21 10:02:00,81.8,71.5,30.01,SSW,196,0.0,5.0,71,0.00,,,0.00,Wunderground v.1.15,2013-06-21 15:02:00,
2013-06-21 10:07:00,82.0,71.7,30.01,South,185,3.0,6.0,71,0.00,,,0.00,Wunderground v.1.15,2013-06-21 15:07:00,
2013-06-21 10:13:00,82.2,71.4,30.01,South,187,5.0,7.0,70,0.00,,,0.00,Wunderground v.1.15,2013-06-21 15:13:00,
2013-06-21 10:18:00,82.4,71.6,30.02,SSW,197,3.0,10.0,70,0.00,,,0.00,Wunderground v.1.15,2013-06-21 15:18:00,
2013-06-21 10:23:00,82.4,72.0,30.02,SSW,209,1.0,6.0,71,0.00,,,0.00,Wunderground v.1.15,2013-06-21 15:23:00,
2013-06-21 10:28:00,82.6,72.2,30.02,SSE,157,2.0,6.0,71,0.00,,,0.00,Wunderground v.1.15,2013-06-21 15:28:00,
2013-06-21 10:33:00,83.2,72.0,30.02,South,181,0.0,5.0,69,0.00,,,0.00,Wunderground v.1.15,2013-06-21 15:33:00,
2013-06-21 10:38:00,83.4,72.2,30.02,SSW,213,0.0,6.0,69,0.00,,,0.00,Wunderground v.1.15,2013-06-21 15:38:00,
2013-06-21 10:43:00,83.8,72.1,30.02,SSW,202,0.0,3.0,68,0.00,,,0.00,Wunderground v.1.15,2013-06-21 15:43:00,
2013-06-21 10:48:00,83.8,71.7,30.01,SE,142,2.0,12.0,67,0.00,,,0.00,Wunderground v.1.15,2013-06-21 15:48:00,
2013-06-21 10:53:00,84.1,72.4,30.01,ESE,104,1.0,11.0,68,0.00,,,0.00,Wunderground v.1.15,2013-06-21 15:53:00,
2013-06-21 10:58:00,84.3,72.1,30.01,SSW,213,1.0,11.0,67,0.00,,,0.00,Wunderground v.1.15,2013-06-21 15:58:00,
2013-06-21 11:03:00,84.5,72.8,30.01,South,173,0.0,6.0,68,0.00,,,0.00,Wunderground v.1.15,2013-06-21 16:03:00,
2013-06-21 11:08:00,84.9,72.3,30.01,South,176,4.0,6.0,66,0.00,,,0.00,Wunderground v.1.15,2013-06-21 16:08:00,
2013-06-21 11:14:00,85.1,72.5,30.01,WSW,240,2.0,5.0,66,0.00,,,0.00,Wunderground v.1.15,2013-06-21 16:14:00,
2013-06-21 11:19:00,85.5,74.2,30.01,SW,221,0.0,5.0,69,0.00,,,0.00,Wunderground v.1.15,2013-06-21 16:19:00,
2013-06-21 11:24:00,85.5,72.8,30.01,SSW,213,0.0,5.0,66,0.00,,,0.00,Wunderground v.1.15,2013-06-21 16:24:00,
2013-06-21 11:29:00,85.7,73.0,30.01,SE,141,0.0,5.0,66,0.00,,,0.00,Wunderground v.1.15,2013-06-21 16:29:00,
2013-06-21 11:34:00,85.7,72.1,30.01,SW,221,2.0,5.0,64,0.00,,,0.00,Wunderground v.1.15,2013-06-21 16:34:00,
2013-06-21 11:39:00,85.5,73.3,30.01,SW,226,0.0,5.0,67,0.00,,,0.00,Wunderground v.1.15,2013-06-21 16:39:00,
2013-06-21 11:44:00,85.7,72.6,30.01,SSE,155,1.0,7.0,65,0.00,,,0.00,Wunderground v.1.15,2013-06-21 16:44:00,
2013-06-21 11:49:00,86.1,73.0,30.01,SSW,198,0.0,7.0,65,0.00,,,0.00,Wunderground v.1.15,2013-06-21 16:49:00,
2013-06-21 11:54:00,86.3,72.2,30.01,SSW,194,1.0,3.0,63,0.00,,,0.00,Wunderground v.1.15,2013-06-21 16:54:00,
2013-06-21 11:59:00,86.5,72.4,30.01,SSW,192,3.0,10.0,63,0.00,,,0.00,Wunderground v.1.15,2013-06-21 16:59:00,
2013-06-21 12:04:00,86.7,73.1,30.01,SSE,163,0.0,4.0,64,0.00,,,0.00,Wunderground v.1.15,2013-06-21 17:04:00,
2013-06-21 12:09:00,87.2,73.1,30.01,South,186,2.0,5.0,63,0.00,,,0.00,Wunderground v.1.15,2013-06-21 17:09:00,
2013-06-21 12:16:00,87.8,72.7,30.01,SSE,157,0.0,5.0,61,0.00,,,0.00,Wunderground v.1.15,2013-06-21 17:16:00,
2013-06-21 12:21:00,87.6,72.5,30.01,SSW,201,0.0,3.0,61,0.00,,,0.00,Wunderground v.1.15,2013-06-21 17:21:00,
2013-06-21 12:26:00,87.4,72.3,30.01,West,263,3.0,4.0,61,0.00,,,0.00,Wunderground v.1.15,2013-06-21 17:26:00,
2013-06-21 12:32:00,87.6,73.0,30.01,SSE,153,2.0,4.0,62,0.00,,,0.00,Wunderground v.1.15,2013-06-21 17:32:00,
2013-06-21 12:37:00,88.0,72.4,30.01,SE,144,0.0,4.0,60,0.00,,,0.00,Wunderground v.1.15,2013-06-21 17:37:00,
2013-06-21 12:43:00,88.0,71.9,30.01,SSE,160,1.0,10.0,59,0.00,,,0.00,Wunderground v.1.15,2013-06-21 17:43:00,
2013-06-21 12:46:00,88.2,72.6,30.01,South,176,0.0,10.0,60,0.00,,,0.00,Wunderground v.1.15,2013-06-21 17:46:00,
2013-06-21 12:47:00,88.0,71.4,30.00,SSW,204,0.0,10.0,58,0.00,,,0.00,Wunderground v.1.15,2013-06-21 17:47:00,
2013-06-21 12:52:00,88.2,71.6,30.00,WSW,250,0.0,4.0,58,0.00,,,0.00,Wunderground v.1.15,2013-06-21 17:52:00,
2013-06-21 12:58:00,88.2,71.6,30.00,ESE,114,1.0,6.0,58,0.00,,,0.00,Wunderground v.1.15,2013-06-21 17:58:00,
2013-06-21 13:03:00,88.2,72.1,30.00,SSE,164,4.0,4.0,59,0.00,,,0.00,Wunderground v.1.15,2013-06-21 18:03:00,
2013-06-21 13:08:00,88.4,71.7,30.00,ESE,110,4.0,5.0,58,0.00,,,0.00,Wunderground v.1.15,2013-06-21 18:08:00,
2013-06-21 13:13:00,88.4,71.7,30.00,SW,218,0.0,5.0,58,0.00,,,0.00,Wunderground v.1.15,2013-06-21 18:13:00,
2013-06-21 13:18:00,88.6,71.4,30.00,SSW,202,2.0,10.0,57,0.00,,,0.00,Wunderground v.1.15,2013-06-21 18:18:00,
2013-06-21 13:23:00,88.6,71.4,30.00,South,176,1.0,4.0,57,0.00,,,0.00,Wunderground v.1.15,2013-06-21 18:23:00,
2013-06-21 13:24:00,88.6,71.4,30.00,South,180,4.0,4.0,57,0.00,,,0.00,Wunderground v.1.15,2013-06-21 18:24:00,
2013-06-21 13:29:00,87.8,71.2,30.00,SE,142,1.0,7.0,58,0.00,,,0.00,Wunderground v.1.15,2013-06-21 18:29:00,
2013-06-21 13:34:00,88.0,70.9,29.99,ESE,117,3.0,4.0,57,0.00,,,0.00,Wunderground v.1.15,2013-06-21 18:34:00,
2013-06-21 13:39:00,88.4,71.7,29.99,SSW,211,3.0,8.0,58,0.00,,,0.00,Wunderground v.1.15,2013-06-21 18:39:00,
2013-06-21 13:45:00,88.8,71.6,29.99,WSW,246,2.0,6.0,57,0.00,,,0.00,Wunderground v.1.15,2013-06-21 18:45:00,
2013-06-21 13:48:00,89.3,71.0,29.99,SSE,167,0.0,8.0,55,0.00,,,0.00,Wunderground v.1.15,2013-06-21 18:48:00,
2013-06-21 13:49:00,89.3,71.0,29.99,South,173,0.0,8.0,55,0.00,,,0.00,Wunderground v.1.15,2013-06-21 18:49:00,
2013-06-21 13:54:00,89.5,70.7,29.99,South,185,3.0,9.0,54,0.00,,,0.00,Wunderground v.1.15,2013-06-21 18:54:00,
2013-06-21 13:59:00,89.5,71.2,29.99,SSW,199,4.0,9.0,55,0.00,,,0.00,Wunderground v.1.15,2013-06-21 18:59:00,
2013-06-21 14:04:00,89.7,71.9,29.98,SSW,200,1.0,11.0,56,0.00,,,0.00,Wunderground v.1.15,2013-06-21 19:04:00,
2013-06-21 14:09:00,89.5,70.7,29.98,WSW,240,2.0,11.0,54,0.00,,,0.00,Wunderground v.1.15,2013-06-21 19:09:00,
2013-06-21 14:14:00,89.5,72.3,29.98,SW,227,0.0,7.0,57,0.00,,,0.00,Wunderground v.1.15,2013-06-21 19:14:00,
2013-06-21 14:19:00,89.7,73.0,29.98,SSW,194,0.0,7.0,58,0.00,,,0.00,Wunderground v.1.15,2013-06-21 19:19:00,
2013-06-21 14:21:00,89.7,73.0,29.98,SSW,194,0.0,1.0,58,0.00,,,0.00,Wunderground v.1.15,2013-06-21 19:21:00,
2013-06-21 14:26:00,89.9,70.5,29.98,SSW,194,0.0,5.0,53,0.00,,,0.00,Wunderground v.1.15,2013-06-21 19:26:00,
2013-06-21 14:31:00,89.9,71.6,29.98,SW,232,0.0,1.0,55,0.00,,,0.00,Wunderground v.1.15,2013-06-21 19:31:00,
2013-06-21 14:36:00,89.9,71.6,29.97,SSE,163,0.0,9.0,55,0.00,,,0.00,Wunderground v.1.15,2013-06-21 19:36:00,
2013-06-21 14:41:00,89.7,71.4,29.97,SE,134,3.0,7.0,55,0.00,,,0.00,Wunderground v.1.15,2013-06-21 19:41:00,
2013-06-21 14:42:00,89.9,72.1,29.97,SSW,198,2.0,7.0,56,0.00,,,0.00,Wunderground v.1.15,2013-06-21 19:42:00,
2013-06-21 14:48:00,89.9,73.1,29.97,SSW,207,0.0,7.0,58,0.00,,,0.00,Wunderground v.1.15,2013-06-21 19:48:00,
2013-06-21 14:53:00,89.9,73.1,29.97,SW,225,0.0,2.0,58,0.00,,,0.00,Wunderground v.1.15,2013-06-21 19:53:00,
2013-06-21 14:58:00,89.9,70.5,29.97,SE,144,1.0,3.0,53,0.00,,,0.00,Wunderground v.1.15,2013-06-21 19:58:00,
2013-06-21 15:03:00,89.9,71.6,29.97,SE,141,0.0,6.0,55,0.00,,,0.00,Wunderground v.1.15,2013-06-21 20:03:00,
2013-06-21 15:04:00,89.9,71.0,29.97,SE,142,0.0,6.0,54,0.00,,,0.00,Wunderground v.1.15,2013-06-21 20:04:00,
2013-06-21 15:08:00,89.9,71.0,29.97,SSE,151,0.0,6.0,54,0.00,,,0.00,Wunderground v.1.15,2013-06-21 20:08:00,
2013-06-21 15:12:00,90.1,70.7,29.97,SSW,206,0.0,3.0,53,0.00,,,0.00,Wunderground v.1.15,2013-06-21 20:12:00,
2013-06-21 15:14:00,90.3,71.9,29.97,SSW,196,0.0,3.0,55,0.00,,,0.00,Wunderground v.1.15,2013-06-21 20:14:00,
2013-06-21 15:19:00,90.5,72.7,29.97,SSE,162,4.0,5.0,56,0.00,,,0.00,Wunderground v.1.15,2013-06-21 20:19:00,
2013-06-21 15:24:00,90.3,71.9,29.97,SE,142,0.0,7.0,55,0.00,,,0.00,Wunderground v.1.15,2013-06-21 20:24:00,
2013-06-21 15:30:00,90.1,70.1,29.97,SSW,200,6.0,6.0,52,0.00,,,0.00,Wunderground v.1.15,2013-06-21 20:30:00,
2013-06-21 15:35:00,89.9,71.6,29.96,SSE,167,3.0,13.0,55,0.00,,,0.00,Wunderground v.1.15,2013-06-21 20:35:00,
2013-06-21 15:40:00,89.3,71.0,29.96,ESE,119,4.0,4.0,55,0.00,,,0.00,Wunderground v.1.15,2013-06-21 20:40:00,
2013-06-21 15:46:00,88.8,71.1,29.96,South,186,4.0,9.0,56,0.00,,,0.00,Wunderground v.1.15,2013-06-21 20:46:00,
2013-06-21 15:51:00,89.0,71.8,29.96,SSE,157,5.0,5.0,57,0.00,,,0.00,Wunderground v.1.15,2013-06-21 20:51:00,
2013-06-21 15:56:00,89.5,71.2,29.96,South,180,0.0,6.0,55,0.00,,,0.00,Wunderground v.1.15,2013-06-21 20:56:00,
2013-06-21 16:01:00,89.0,71.3,29.96,SSE,163,3.0,4.0,56,0.00,,,0.00,Wunderground v.1.15,2013-06-21 21:01:00,
2013-06-21 16:04:00,88.8,70.5,29.96,South,186,5.0,8.0,55,0.00,,,0.00,Wunderground v.1.15,2013-06-21 21:04:00,
2013-06-21 16:09:00,88.2,70.0,29.96,SE,130,7.0,8.0,55,0.00,,,0.00,Wunderground v.1.15,2013-06-21 21:09:00,
2013-06-21 16:14:00,88.0,70.9,29.96,SE,134,9.0,10.0,57,0.00,,,0.00,Wunderground v.1.15,2013-06-21 21:14:00,
2013-06-21 16:19:00,88.2,70.5,29.95,SSW,203,0.0,10.0,56,0.00,,,0.00,Wunderground v.1.15,2013-06-21 21:19:00,
2013-06-21 16:24:00,88.8,71.1,29.95,SSE,167,2.0,11.0,56,0.00,,,0.00,Wunderground v.1.15,2013-06-21 21:24:00,
2013-06-21 16:29:00,89.3,70.5,29.95,SSW,194,1.0,11.0,54,0.00,,,0.00,Wunderground v.1.15,2013-06-21 21:29:00,
2013-06-21 16:34:00,89.5,70.7,29.95,SE,141,5.0,7.0,54,0.00,,,0.00,Wunderground v.1.15,2013-06-21 21:34:00,
2013-06-21 16:39:00,89.5,70.1,29.95,SSE,167,4.0,11.0,53,0.00,,,0.00,Wunderground v.1.15,2013-06-21 21:39:00,
2013-06-21 16:44:00,89.5,69.5,29.95,SSE,147,0.0,9.0,52,0.00,,,0.00,Wunderground v.1.15,2013-06-21 21:44:00,
2013-06-21 16:49:00,89.5,70.7,29.95,SE,132,2.0,9.0,54,0.00,,,0.00,Wunderground v.1.15,2013-06-21 21:49:00,
2013-06-21 16:54:00,89.3,71.5,29.95,South,184,0.0,7.0,56,0.00,,,0.00,Wunderground v.1.15,2013-06-21 21:54:00,
2013-06-21 16:59:00,89.0,70.7,29.95,SSE,162,1.0,7.0,55,0.00,,,0.00,Wunderground v.1.15,2013-06-21 21:59:00,
2013-06-21 17:04:00,89.0,70.2,29.95,SW,225,2.0,11.0,54,0.00,,,0.00,Wunderground v.1.15,2013-06-21 22:04:00,
2013-06-21 17:09:00,88.8,70.0,29.95,SSW,196,0.0,11.0,54,0.00,,,0.00,Wunderground v.1.15,2013-06-21 22:09:00,
2013-06-21 17:15:00,88.8,71.1,29.95,WSW,242,0.0,10.0,56,0.00,,,0.00,Wunderground v.1.15,2013-06-21 22:15:00,
2013-06-21 17:20:00,88.8,71.1,29.94,SSW,193,1.0,5.0,56,0.00,,,0.00,Wunderground v.1.15,2013-06-21 22:20:00,
2013-06-21 17:26:00,88.8,71.1,29.94,SW,229,3.0,8.0,56,0.00,,,0.00,Wunderground v.1.15,2013-06-21 22:26:00,
2013-06-21 17:31:00,88.6,70.4,29.94,SSW,210,0.0,4.0,55,0.00,,,0.00,Wunderground v.1.15,2013-06-21 22:31:00,
2013-06-21 17:36:00,88.4,69.6,29.94,SSW,198,1.0,6.0,54,0.00,,,0.00,Wunderground v.1.15,2013-06-21 22:36:00,
2013-06-21 17:41:00,88.4,70.2,29.94,SE,141,3.0,4.0,55,0.00,,,0.00,Wunderground v.1.15,2013-06-21 22:41:00,
2013-06-21 17:46:00,88.6,71.4,29.94,SSE,150,6.0,6.0,57,0.00,,,0.00,Wunderground v.1.15,2013-06-21 22:46:00,
2013-06-21 17:51:00,88.4,70.2,29.94,SSE,168,3.0,4.0,55,0.00,,,0.00,Wunderground v.1.15,2013-06-21 22:51:00,
2013-06-21 17:57:00,88.4,70.2,29.94,SSE,153,0.0,7.0,55,0.00,,,0.00,Wunderground v.1.15,2013-06-21 22:57:00,
2013-06-21 18:02:00,88.2,70.5,29.94,South,173,3.0,5.0,56,0.00,,,0.00,Wunderground v.1.15,2013-06-21 23:02:00,
2013-06-21 18:07:00,88.2,71.6,29.94,SSE,156,1.0,6.0,58,0.00,,,0.00,Wunderground v.1.15,2013-06-21 23:07:00,
2013-06-21 18:12:00,88.0,70.3,29.94,SSE,150,2.0,5.0,56,0.00,,,0.00,Wunderground v.1.15,2013-06-21 23:12:00,
2013-06-21 18:18:00,88.0,70.9,29.93,South,188,1.0,10.0,57,0.00,,,0.00,Wunderground v.1.15,2013-06-21 23:18:00,
2013-06-21 18:23:00,87.8,70.1,29.93,SSE,163,2.0,10.0,56,0.00,,,0.00,Wunderground v.1.15,2013-06-21 23:23:00,
2013-06-21 18:28:00,87.6,69.4,29.93,SSE,167,13.0,13.0,55,0.00,,,0.00,Wunderground v.1.15,2013-06-21 23:28:00,
2013-06-21 18:33:00,87.4,69.8,29.93,SSE,155,2.0,7.0,56,0.00,,,0.00,Wunderground v.1.15,2013-06-21 23:33:00,
2013-06-21 18:38:00,87.4,70.3,29.93,SSE,148,0.0,7.0,57,0.00,,,0.00,Wunderground v.1.15,2013-06-21 23:38:00,
2013-06-21 18:43:00,87.4,70.8,29.93,WSW,246,5.0,6.0,58,0.00,,,0.00,Wunderground v.1.15,2013-06-21 23:43:00,
2013-06-21 18:48:00,87.2,70.6,29.93,SE,144,0.0,6.0,58,0.00,,,0.00,Wunderground v.1.15,2013-06-21 23:48:00,
2013-06-21 18:53:00,87.0,70.4,29.93,SSW,192,0.0,3.0,58,0.00,,,0.00,Wunderground v.1.15,2013-06-21 23:53:00,
2013-06-21 18:58:00,87.0,70.4,29.93,South,170,3.0,9.0,58,0.00,,,0.00,Wunderground v.1.15,2013-06-21 23:58:00,
2013-06-21 19:03:00,86.7,69.1,29.93,South,171,0.0,9.0,56,0.00,,,0.00,Wunderground v.1.15,2013-06-22 00:03:00,
2013-06-21 19:08:00,86.7,69.6,29.93,ESE,105,0.0,10.0,57,0.00,,,0.00,Wunderground v.1.15,2013-06-22 00:08:00,
2013-06-21 19:13:00,86.5,70.0,29.93,SE,143,7.0,7.0,58,0.00,,,0.00,Wunderground v.1.15,2013-06-22 00:13:00,
2013-06-21 19:18:00,86.3,69.8,29.93,SE,134,0.0,7.0,58,0.00,,,0.00,Wunderground v.1.15,2013-06-22 00:18:00,
2013-06-21 19:23:00,86.1,70.1,29.93,SE,130,5.0,5.0,59,0.00,,,0.00,Wunderground v.1.15,2013-06-22 00:23:00,
2013-06-21 19:28:00,86.1,70.1,29.93,SSW,207,0.0,8.0,59,0.00,,,0.00,Wunderground v.1.15,2013-06-22 00:28:00,
2013-06-21 19:33:00,85.9,69.4,29.93,South,174,0.0,3.0,58,0.00,,,0.00,Wunderground v.1.15,2013-06-22 00:33:00,
2013-06-21 19:38:00,85.9,69.9,29.93,SSW,196,2.0,7.0,59,0.00,,,0.00,Wunderground v.1.15,2013-06-22 00:38:00,
2013-06-21 19:43:00,85.7,70.2,29.93,SW,215,0.0,5.0,60,0.00,,,0.00,Wunderground v.1.15,2013-06-22 00:43:00,
2013-06-21 19:48:00,85.5,70.0,29.93,SE,134,1.0,5.0,60,0.00,,,0.00,Wunderground v.1.15,2013-06-22 00:48:00,
2013-06-21 19:53:00,85.3,70.3,29.93,SSE,162,5.0,5.0,61,0.00,,,0.00,Wunderground v.1.15,2013-06-22 00:53:00,
2013-06-21 19:58:00,84.9,70.4,29.93,SSE,165,1.0,6.0,62,0.00,,,0.00,Wunderground v.1.15,2013-06-22 00:58:00,
2013-06-21 20:03:00,84.7,70.2,29.93,South,170,0.0,5.0,62,0.00,,,0.00,Wunderground v.1.15,2013-06-22 01:03:00,
2013-06-21 20:08:00,84.3,69.9,29.93,South,170,0.0,5.0,62,0.00,,,0.00,Wunderground v.1.15,2013-06-22 01:08:00,
2013-06-21 20:13:00,84.1,70.6,29.93,South,170,0.0,0.0,64,0.00,,,0.00,Wunderground v.1.15,2013-06-22 01:13:00,
2013-06-21 20:18:00,83.8,70.8,29.93,South,170,0.0,2.0,65,0.00,,,0.00,Wunderground v.1.15,2013-06-22 01:18:00,
2013-06-21 20:23:00,83.4,70.8,29.93,South,170,0.0,1.0,66,0.00,,,0.00,Wunderground v.1.15,2013-06-22 01:23:00,
2013-06-21 20:28:00,83.0,70.9,29.93,South,171,0.0,1.0,67,0.00,,,0.00,Wunderground v.1.15,2013-06-22 01:28:00,
2013-06-21 20:33:00,82.6,70.5,29.93,South,170,0.0,0.0,67,0.00,,,0.00,Wunderground v.1.15,2013-06-22 01:33:00,
2013-06-21 20:38:00,82.2,71.0,29.93,South,170,0.0,0.0,69,0.00,,,0.00,Wunderground v.1.15,2013-06-22 01:38:00,
2013-06-21 20:43:00,81.6,70.4,29.93,South,170,0.0,0.0,69,0.00,,,0.00,Wunderground v.1.15,2013-06-22 01:43:00,
2013-06-21 20:48:00,81.2,70.5,29.94,South,171,0.0,0.0,70,0.00,,,0.00,Wunderground v.1.15,2013-06-22 01:48:00,
2013-06-21 20:53:00,81.1,70.4,29.94,South,170,0.0,0.0,70,0.00,,,0.00,Wunderground v.1.15,2013-06-22 01:53:00,
2013-06-21 20:58:00,80.9,70.6,29.94,South,170,0.0,3.0,71,0.00,,,0.00,Wunderground v.1.15,2013-06-22 01:58:00,
2013-06-21 21:03:00,80.7,70.0,29.94,South,171,0.0,0.0,70,0.00,,,0.00,Wunderground v.1.15,2013-06-22 02:03:00,
2013-06-21 21:08:00,80.5,70.2,29.94,South,170,0.0,0.0,71,0.00,,,0.00,Wunderground v.1.15,2013-06-22 02:08:00,
2013-06-21 21:13:00,80.3,70.0,29.94,South,170,0.0,0.0,71,0.00,,,0.00,Wunderground v.1.15,2013-06-22 02:13:00,
2013-06-21 21:18:00,80.3,70.0,29.93,South,170,0.0,1.0,71,0.00,,,0.00,Wunderground v.1.15,2013-06-22 02:18:00,
2013-06-21 21:24:00,79.9,70.5,29.93,South,170,0.0,0.0,73,0.00,,,0.00,Wunderground v.1.15,2013-06-22 02:24:00,
2013-06-21 21:29:00,79.6,70.2,29.93,South,170,0.0,0.0,73,0.00,,,0.00,Wunderground v.1.15,2013-06-22 02:29:00,
2013-06-21 21:34:00,79.2,70.2,29.94,South,171,0.0,3.0,74,0.00,,,0.00,Wunderground v.1.15,2013-06-22 02:34:00,
2013-06-21 21:39:00,78.8,69.8,29.94,South,171,0.0,3.0,74,0.00,,,0.00,Wunderground v.1.15,2013-06-22 02:39:00,
2013-06-21 21:44:00,78.6,69.6,29.94,South,171,0.0,3.0,74,0.00,,,0.00,Wunderground v.1.15,2013-06-22 02:44:00,
2013-06-21 21:49:00,78.5,69.5,29.94,South,171,0.0,3.0,74,0.00,,,0.00,Wunderground v.1.15,2013-06-22 02:49:00,
2013-06-21 21:54:00,78.3,69.7,29.94,South,171,0.0,0.0,75,0.00,,,0.00,Wunderground v.1.15,2013-06-22 02:54:00,
2013-06-21 21:59:00,78.3,69.7,29.94,South,171,0.0,2.0,75,0.00,,,0.00,Wunderground v.1.15,2013-06-22 02:59:00,
2013-06-21 22:04:00,77.9,69.3,29.95,South,171,0.0,1.0,75,0.00,,,0.00,Wunderground v.1.15,2013-06-22 03:04:00,
2013-06-21 22:09:00,77.9,69.3,29.95,South,171,0.0,3.0,75,0.00,,,0.00,Wunderground v.1.15,2013-06-22 03:09:00,
2013-06-21 22:14:00,77.9,69.7,29.95,South,171,0.0,0.0,76,0.00,,,0.00,Wunderground v.1.15,2013-06-22 03:14:00,
2013-06-21 22:19:00,77.6,69.4,29.95,South,171,0.0,0.0,76,0.00,,,0.00,Wunderground v.1.15,2013-06-22 03:19:00,
2013-06-21 22:24:00,77.4,69.6,29.95,South,171,0.0,1.0,77,0.00,,,0.00,Wunderground v.1.15,2013-06-22 03:24:00,
2013-06-21 22:29:00,77.0,69.6,29.95,South,171,0.0,1.0,78,0.00,,,0.00,Wunderground v.1.15,2013-06-22 03:29:00,
2013-06-21 22:34:00,76.8,69.8,29.95,South,171,1.0,3.0,79,0.00,,,0.00,Wunderground v.1.15,2013-06-22 03:34:00,
2013-06-21 22:39:00,77.0,70.0,29.95,South,171,0.0,3.0,79,0.00,,,0.00,Wunderground v.1.15,2013-06-22 03:39:00,
2013-06-21 22:44:00,77.0,70.0,29.95,South,171,0.0,1.0,79,0.00,,,0.00,Wunderground v.1.15,2013-06-22 03:44:00,
2013-06-21 22:49:00,76.8,69.8,29.95,South,171,0.0,1.0,79,0.00,,,0.00,Wunderground v.1.15,2013-06-22 03:49:00,
2013-06-21 22:54:00,76.7,69.7,29.95,South,171,0.0,0.0,79,0.00,,,0.00,Wunderground v.1.15,2013-06-22 03:54:00,
2013-06-21 22:59:00,76.5,69.9,29.95,South,171,0.0,1.0,80,0.00,,,0.00,Wunderground v.1.15,2013-06-22 03:59:00,
2013-06-21 23:01:00,76.5,69.9,29.95,South,171,0.0,0.0,80,0.00,,,0.00,Wunderground v.1.15,2013-06-22 04:01:00,
2013-06-21 23:06:00,76.5,70.2,29.96,South,171,0.0,3.0,81,0.00,,,0.00,Wunderground v.1.15,2013-06-22 04:06:00,
2013-06-21 23:11:00,76.5,70.2,29.96,South,171,0.0,1.0,81,0.00,,,0.00,Wunderground v.1.15,2013-06-22 04:11:00,
2013-06-21 23:16:00,76.7,70.4,29.96,South,171,2.0,3.0,81,0.00,,,0.00,Wunderground v.1.15,2013-06-22 04:16:00,
2013-06-21 23:21:00,77.4,70.4,29.95,SE,140,3.0,5.0,79,0.00,,,0.00,Wunderground v.1.15,2013-06-22 04:21:00,
2013-06-21 23:26:00,77.7,70.7,29.95,SSW,192,0.0,5.0,79,0.00,,,0.00,Wunderground v.1.15,2013-06-22 04:26:00,
2013-06-21 23:31:00,78.1,70.7,29.95,SSE,162,0.0,4.0,78,0.00,,,0.00,Wunderground v.1.15,2013-06-22 04:31:00,
2013-06-21 23:36:00,78.3,70.9,29.95,SE,134,0.0,7.0,78,0.00,,,0.00,Wunderground v.1.15,2013-06-22 04:36:00,
2013-06-21 23:41:00,78.5,71.1,29.95,SE,145,2.0,4.0,78,0.00,,,0.00,Wunderground v.1.15,2013-06-22 04:41:00,
2013-06-21 23:46:00,78.5,71.1,29.95,SSE,153,0.0,5.0,78,0.00,,,0.00,Wunderground v.1.15,2013-06-22 04:46:00,
2013-06-21 23:51:00,78.5,71.1,29.96,SSE,153,2.0,4.0,78,0.00,,,0.00,Wunderground v.1.15,2013-06-22 04:51:00,
2013-06-21 23:56:00,78.5,71.1,29.96,SSE,155,0.0,6.0,78,0.00,,,0.00,Wunderground v.1.15,2013-06-22 04:56:00,